Tracking 17780 objects as of 29-July-2016
HD Live streaming from Space Station
objects crossing your sky now

COSMOS 2251 DEB

Track COSMOS 2251 DEB now!
10-day predictions


NORAD ID: 35451
Int'l Code: 1993-036AKV
Perigee: 568.8 km
Apogee: 721.0 km
Inclination: 73.9 °
Period: 97.5 minutes
Semi major axis: 7015 km
RCS: 0.0039 m2 (small)
Launch date: June 16, 1993
Source: Commonwealth of Independent States (former USSR) (CIS)
Launch site: PLESETSK MISSILE AND SPACE COMPLEX (PKMTR)

Note: This is SATELLITE DEBRIS
Your satellite tracking list
Your tracking list is empty





NASA's NSSDC Master Catalog

Two Line Element Set (TLE):
1 35451U 93036AKV 16211.08967584  .00000708  00000-0  95380-4 0  9991
2 35451  73.9467 112.0189 0108473  90.9944 270.3660 14.77327572390940
Source of the keplerian elements: AFSPC

N2YO: 920